Regional Weather Roundup
Issued by NWS

Home | Current Version | Previous Version | Text Only | Print | Product List | Glossary On
Versions: 1 2 3 4 5 6 7 8 9 10 11 12 13 14 15 16 17 18 19 20 21 22 23 24 25 26 27 28 29 30 31 32 33 34 35 36 37 38 39 40 41 42 43 44 45 46 47 48 49 50
000
ASUS42 KKEY 061610
RWRKEY

FLORIDA REGIONAL WEATHER ROUNDUP FOR THE FLORIDA KEYS
NATIONAL WEATHER SERVICE KEY WEST FLORIDA
1100 AM EST FRI MAR 06 2015

...SOUTH FLORIDA AND THE KEYS...

CITY           SKY/WX    TMP DP  RH WIND       PRES   REMARKS
FORT MYERS     SUNNY     78  68  71 CALM      30.20S
SW REGIONAL AP SUNNY     77  67  71 CALM      30.21S
NAPLES         PTSUNNY   78  69  73 W6        30.20S
MIAMI          MOSUNNY   83  68  60 SE10      30.20S
WEST KENDALL   MOSUNNY   79  67  66 SE8       30.20S
HOMESTEAD      MOSUNNY   81  69  67 E9        30.19S
MARATHON       MOSUNNY   82  72  71 VRB5      30.19S
BOCA CHICA NAS MOSUNNY   82  70  66 E13       30.19
KEY WEST INTL  MOSUNNY   80  71  74 E13       30.20R

...INTERNATIONAL WEATHER...

CITY           SKY/WX    TMP DP  RH WIND       PRES   REMARKS
NASSAU BAHAMAS NOT AVBL
CANCUN MEXICO  MOSUNNY   82  72  69 E10       30.16S
COZUMEL MEXICO MOSUNNY   79  72  78 NE12      30.16R

ADJACENT COASTAL WATERS...

STATION/POSITION TIME  SKY/WX   TEMP    WIND        PRES    WAVE
                                AIR SEA DIR/SP/G            HT/PER
                 (UTC)          (F)     (DEG/KT/KT) (MB)    (FT/S)
PULASKI SHOAL LI 1500            74      40/  6/  7 1022.5R
SAND KEY         1550            76      70/  6/  7 1022.6R
SOMBRERO KEY     1600            77     100/  6/  7 1023.1R
LONG KEY         1500            77 78  100/  5/  7 1023.3R
MOLASSES REEF    1600            76 77  130/  7/  8 1022.4F
FOWEY ROCKS      NOT AVBL
Buoy 42080       NOT AVBL

$$


USA.gov is the U.S. government's official web portal to all federal, state and local government web resources and services.